Top 250   1.8 MHz   UTC   Spotter   Comment  
SQ2HL   1840.0   25 Jun 21:23   SQ2XE   ft8 5 ocean award
GB19SL   1827.0   25 Jun 21:17   GM4JYB   cq up 1
RK75OP   1831.0   25 Jun 21:13   R1NW   Karelia awards
GB19SL   1827.0   25 Jun 21:04   IZ2DLV   up1
GB19SL   1827.0   25 Jun 21:02   DL4YR   1 up....loud
GB19SL   1827.0   25 Jun 21:02   F4HXJ   up1
GB19SL   1827.0   25 Jun 20:58   G4LPP   CWC
GB19SL   1827.0   25 Jun 20:56   G4TUK   UP 1
GB19TB   1847.1   25 Jun 20:52   HA4FB   LSB
GB19TB   1847.0   25 Jun 20:49   IZ2DLV   iso
GB19TB   1847.0   25 Jun 20:47   2E0MNG  
GB19TB   1847.0   25 Jun 20:46   G3YYD   SSB CWC
GB19TB   1826.0   25 Jun 20:32   G3YYD   CWC
RU9F   1825.0   25 Jun 20:17   R3WA   tnx QSO
R3WA   1825.0   25 Jun 20:14   RU9F   tnx QSO
R3WA   1825.0   25 Jun 20:05   R3WA   CQ CQ
LY5W   1840.0   25 Jun 19:35   LY5W   cq japan 1908
UA3FQ   1870.0   25 Jun 19:33   RU3KY   5 OKEAH
UA3FQ   1870.0   25 Jun 19:31   R8FF   5 Ocean Club award
N8JK   1840.0   25 Jun 09:23   K7CTV   FT8
LU5YF   1840.0   25 Jun 08:51   K7CTV   FT8
GB19CJ   1840.0   25 Jun 07:58   GJ6WRI   CQ CQ FT8
ZF2CJ   1840.0   25 Jun 07:16   AB2RF   ft8
W1AW   1802.5   25 Jun 03:12   G4UFK   vy weak
5B19CWC   1840.0   25 Jun 02:22   LU5VV  
LU5VV   1840.0   25 Jun 02:18   5B4AIF   ft8 -14
PU5MAN   1847.0   24 Jun 22:56   LU2DVI/H   Tnx Qso 73
GB19HL   1860.0   24 Jun 22:46   M0WKR   qsy 3742
GB19HL   1850.0   24 Jun 22:41   DL8HXP   tkd fer qso de dl8hxp
GB19HL   1860.0   24 Jun 22:38   SP2EWQ   LOUD...
GB19EB   1835.0   24 Jun 22:31   SP2EWQ   CW maybe, please?
GB19HL   1860.3   24 Jun 22:31   G7OGX   CWC SES
GB19HL   1860.0   24 Jun 22:29   GM4JYB   tks. 73
GB19HL   1860.0   24 Jun 22:25   DL3FF   cq
GB19EB   1835.0   24 Jun 22:20   G8GNI   cwc rtty
GB19HL   1860.0   24 Jun 22:15   SP2EWQ   FT8 /RTTY , please...
GB19HL   1860.0   24 Jun 22:14   SQ6ILB  
GB19HL   1860.0   24 Jun 22:08   PA5WK   tnx 73
GB19HL   1860.0   24 Jun 22:01   M0WKR   cq cq
LU2FE   1840.0   24 Jun 21:44   PU3YKW   FT8
EG3PTP   1840.0   24 Jun 21:40   EA3DUR   ft8
VK3CWB   1828.0   24 Jun 21:30   JA5SWL   vy cqdx
GB19RG   1826.0   24 Jun 21:18   HA7ME   tnx qso on new band
R3WA   1830.9   24 Jun 21:17   R3WA   CQ CQ
VK3CWB   1828.0   24 Jun 21:09   JA5SWL   gud hr u agn maz san 579
GB19RG   1826.0   24 Jun 21:04   G3YYD   CWC
GB19RG   1826.0   24 Jun 20:59   G4RCG   CQ
EV19SAM   1821.5   24 Jun 20:50   SP2EBG  
R39PGD   1840.0   24 Jun 20:48   RN2FA   FT8
R39PGD   1840.0   24 Jun 20:45   RN2FA   FT8 20 Points ))
R39PGD   1840.0   24 Jun 20:02   UT1HP   FT8
R39PGD   1840.0   24 Jun 19:27   RA1WZ  
RA3WJR   1910.0   24 Jun 18:53   RA3WJR   CQ
UB6A   1800.0   24 Jun 18:45   R7DC  
RW6ANJ   1800.0   24 Jun 18:44   R7DC  
RT7A   1800.0   24 Jun 18:43   R7DC  
RX6AS   1800.0   24 Jun 18:41   R7DC  
RW6AVJ   1800.0   24 Jun 18:41   R7DC  
R7AH   1800.0   24 Jun 18:40   R7DC  
5TY6J   1800.0   24 Jun 18:39   R7DC  
GB19SL   1825.0   24 Jun 14:40   G4TUK  
AG6IF   1840.0   24 Jun 05:42   ZL2OK   James cq ft8
LU9FZL   1865.0   24 Jun 00:11   CX4DI   phone strong
GB19IND   1823.0   23 Jun 23:16   OK4RQ   TNX
GB19IND   1823.0   23 Jun 23:08   LY2BMX   tnx qso
EV0SD   1800.0   23 Jun 22:56   OK4RQ   PSE AGN 160 M
CX2TC   1855.0   23 Jun 22:49   LU9JX   CQ phone
ZP5DBC   1855.0   23 Jun 22:43   LU9JX  
CX2TC   1855.0   23 Jun 22:38   CX4DI   cq cq strong
LU2DVI/H   1847.0   23 Jun 22:06   LU5YF   cq dx
EG3PTP   1840.0   23 Jun 21:57   EA3RCI   FT8 FIESTAS PATUM DE BERGA
GB19CWC   1834.0   23 Jun 21:52   OK4RQ   nw CW
GB19PAK   1800.0   23 Jun 21:47   OK4RQ   pse cw /ssb
PA1EZ   1840.0   23 Jun 21:46   SQ6PLE   FT8 TNX QSO 73! IREK
GB19PAK   1840.0   23 Jun 21:45   G4DBW   15min then qrt !
GB19CWC   1848.0   23 Jun 21:37   OK4RQ  
5B19CWC   1840.0   23 Jun 21:35   GM4JYB   cq
EV0MA   1840.0   23 Jun 21:28   UT1HP   FT8
GB19PAK   1840.0   23 Jun 21:24   G7OGX   FT8 CWC
RK75OP   1831.0   23 Jun 21:19   R1NW  
GB19PAK   1840.0   23 Jun 21:16   OK1RCG   Any chance for CW pse?
GB19PAK   1840.0   23 Jun 21:07   G4DBW   ft8 cqcq
RU3KO   1820.0   23 Jun 20:18   RV3IG   TNX QSO!
RU3KO   1820.0   23 Jun 20:15   RX3QTN   5 OKEAH
RU3KO   1820.0   23 Jun 20:14   RU3KY   5 OKEAH
RU3KO   1864.0   23 Jun 20:10   RU3KY  
RU3KO   1865.0   23 Jun 20:05   RX3QTN   5 OKEAH
SP2EWQ   1831.0   23 Jun 19:43   GB19HL   the queen of the mourner
GB19HL   1831.0   23 Jun 19:37   SP2EWQ   SSB/DIGI also, please...
GB19HL   1831.0   23 Jun 19:34   G4BYG   ONLY ON LOW POWER
RK75OP   1831.0   23 Jun 19:15   R6CW  
RK75OP   1831.0   23 Jun 19:14   R1NW   KARELIA awards
UA3FQ   1825.0   23 Jun 19:08   UY5MS   CQ CQ
UA3FQ   1825.0   23 Jun 19:06   RO5F   5 Ocean
UA3FQ   1860.0   23 Jun 18:56   RO5F   5 Ocean Club a new award
T88PB   1811.0   23 Jun 12:43   JP1FHC   tnx cq na
N4RJ   1814.0   23 Jun 10:26   N4VN  
HK3W   1840.0   23 Jun 10:18   WR4K   CQ DX FT8
ZW30BF   1840.0   23 Jun 08:20   PY4AZ   special call
W3AO   1819.0   23 Jun 07:11   W3LPL   Heard in OH
W3AO   1822.9   23 Jun 06:28   W3LPL   Heard in NH and MD
VA7GEM   1840.0   23 Jun 06:24   WB7UZO  
W6ERE   1840.0   23 Jun 06:20   WB7UZO  
WA6NHC   1840.0   23 Jun 06:17   WB7UZO  
W3AO   1820.1   23 Jun 06:07   W3LPL   Heard in MA and NH
W3AO   1812.0   23 Jun 06:03   W3LPL   Heard in MD and OH
W3AO   1824.8   23 Jun 05:43   W3LPL   Heard in NH and MD
HK3W   1840.0   23 Jun 05:34   N6RW   Good signal in AZ
W3AO   1822.8   23 Jun 04:16   W3LPL   Heard in MA and NH
NV3N   1819.0   23 Jun 03:47   G4UFK   in/out qsb
W3AO   1823.3   23 Jun 02:16   W3LPL   Heard in PA and VA
W3AO   1824.7   23 Jun 02:09   N4GG  
W4DFG   1900.0   23 Jun 00:54   KD4CB   Field Day 3E SC
EA5RC   1848.0   23 Jun 00:48   F4GTD   Test
W3AO   1824.4   23 Jun 00:42   W3LPL   Heard in MD and OH
VE2JCW   1817.0   23 Jun 00:37   K1GQ   fd
EE4E   1854.9   23 Jun 00:07   RW1F   KOS CONTEST
EA1EXE   1843.2   23 Jun 00:04   EB2AM  
EE2W   1855.0   22 Jun 23:45   ED1R   KOS SSB
W4DFG   1900.0   22 Jun 23:44   KD4CB   FIELD DAY
HA4XH   1864.8   22 Jun 23:43   RW1F   KOS CONTEST
ED2R   1848.0   22 Jun 23:36   ED1R   KOS SSB
EA5RC   1848.0   22 Jun 23:27   ED1R   KOS SSB
S53M   1865.0   22 Jun 23:25   ED1R   KOS SSB
ED1R   1859.0   22 Jun 23:22   EA1DMP   SMR Contest
EA7OT   1845.0   22 Jun 23:20   EA4AAZ   CONTEST SMR FB
EA7OT   1845.0   22 Jun 23:19   EA4AAZ  
EA8ZS   1839.9   22 Jun 23:09   ED1R   KOS SSB
EB5JKV   1840.5   22 Jun 22:59   ED1R   KOS SSB
EC7WR   1839.0   22 Jun 22:46   ED1R   KOS SSB
GB19RG   1845.8   22 Jun 22:28   GM4JYB   cq. tks
EF0F   1873.0   22 Jun 22:27   ED1R   KOS SSB FELIPE VI CALL
EA5SR   1857.0   22 Jun 22:27   EA5BZ   CQ TEST KOS
GB19RG   1845.0   22 Jun 22:19   M0HYE   CWC
GB19SA   1848.0   22 Jun 22:18   F1RAF  
S53M   1865.1   22 Jun 22:14   ED1R   KOS SSB
GB19SA   1848.0   22 Jun 22:11   G4AFS  
EG3PTP   1840.0   22 Jun 22:07   EA3RCI   FT8 80 Y 160 PATUM DE BERGA
EA3OH   1852.0   22 Jun 22:04   ED1R   KOS SSB
GB19SA   1847.0   22 Jun 22:03   G4AFS  
EG3PTP   1840.0   22 Jun 22:01   EA3DUR   FT8 NUEVA ESTACION
EC5AN   1866.1   22 Jun 22:00   ED1R   KOS SSB
RW1F   1851.0   22 Jun 22:00   R1CAM  
GB19RG   1847.0   22 Jun 21:57   SP2EWQ   Any chance for 80m/SSB, pse?
ED1R   1858.9   22 Jun 21:57   RW1F   KOS CONTEST
GB19SA   1826.0   22 Jun 21:57   G3WPH  
YL7X   1872.9   22 Jun 21:56   RW1F   KOS CONTEST
ED1R   1859.0   22 Jun 21:56   EA4GYY  
ED4N   1875.0   22 Jun 21:55   ED1R   KOS SSB
EA2XR   1870.0   22 Jun 21:54   ED1R   KOS SSB
LY4O   1861.2   22 Jun 21:53   ED1R  
EA7IOJ   1859.0   22 Jun 21:53   ED1R   KOS SSB
EE2W   1855.0   22 Jun 21:52   ED1R   KOS SSB
GB19CJ   1840.0   22 Jun 21:52   GJ6WRI   FT8 CQ Cricket World Cup Jersey EU013
EA2XR   1870.0   22 Jun 21:51   EA8YG   concurso
GB19RG   1847.0   22 Jun 21:49   M0HYE   CWC
EA7OT   1849.0   22 Jun 21:47   ED1R   KOS SSB
LZ1YE   1855.0   22 Jun 21:47   LZ1OJ   KOS SSB
EG3PTT   1840.0   22 Jun 21:45   EA3DUR   ULTIMAS LLAMADAS
ED1R   1859.0   22 Jun 21:40   EA3OH   LSB
EF0F   1863.0   22 Jun 21:40   RW1F   KOS CONTEST
EF0F   1863.0   22 Jun 21:36   ED1R   KOS SSB FELIPE VI CALL
EF0F   1863.0   22 Jun 21:33   EA3OH   LSB
EE2W   1855.0   22 Jun 21:33   EA3OH   LSB
EG3PTT   1840.0   22 Jun 21:25   EA3DE   Patum de Berga 2019
EA7OT   1849.0   22 Jun 21:24   EA3OH   LSB
EF0F   1852.0   22 Jun 21:08   ED9E   SMR CONTEST
IQ5VR/4   1840.0   22 Jun 21:06   IK4UXA   QRT (call ik4uxa op.stefano) 73 ciao
EA5RC   1845.0   22 Jun 21:06   EC5AN   SMR
GB19TB   1832.5   22 Jun 21:04   G3YYD  
EG3PTT   1840.0   22 Jun 21:04   EA3DUR   FT8 PATUM DE BERGA
EA7OT   1849.0   22 Jun 21:00   EA1FAQ   KOS CO
GB19TB   1832.5   22 Jun 20:56   G4MEM  
GB19CS   1841.2   22 Jun 20:51   SP2EWQ   FT8 Tks.. LOUD!
GB19CS   1840.0   22 Jun 20:50   GM3WOJ   Tnx Alec! Now CQ 1st period
LY4O   1858.7   22 Jun 20:50   LY2J   KING-OF-SPAIN-SSB
EA7TG   1842.0   22 Jun 20:46   EA4CRP   cq smr
GB19CS   1840.0   22 Jun 20:45   GM3WOJ   clg SP2EWQ now - I TX first
GB19RG   1845.0   22 Jun 20:44   M0HYE   CWC
GB19CS   1840.0   22 Jun 20:30   SP2EWQ   Will You try, pse?
IQ5VR   1840.0   22 Jun 20:24   IK4UXA   Railway Massacre Viareggio " iq5vr/4 "
RT2Y   1815.0   22 Jun 20:21   RG9A  
LY4O   1855.9   22 Jun 20:20   LY2J   KING-OF-SPAIN-SSB
EU19RO   1810.0   22 Jun 20:11   R9XM  
GB19RG   1840.0   22 Jun 19:56   SP2EWQ   SSB, please...
RW9H   1819.0   22 Jun 19:18   R9IR  
EA5RC   1845.0   22 Jun 19:17   EB5JKV   CQ SMR
EA5RC   1845.0   22 Jun 18:00   EA1BKO   KING OF SPAIN
T88PB   1821.0   22 Jun 12:44   JA7GYP   cq na
T88PB   1812.0   22 Jun 12:31   HL1VAU  
JF3ELH/6   1910.0   22 Jun 12:02   JI3DST   iota as-017 Zamami Is.
T88PB   1800.0   22 Jun 10:17   LU5YF   pse 1840
ZV13LACRE   1840.0   22 Jun 09:00   PU2USK   especial ft8
VE3MGY   1840.0   22 Jun 08:50   KB4MRX  
W1AW   1802.5   22 Jun 03:26   G4UFK   479
GB19CGM   1831.0   21 Jun 23:11   IZ1BWX   tnx qso difficult 73
GB19CGM   1831.0   21 Jun 23:09   IZ1BWX  
ON8ZA   1840.8   21 Jun 23:05   R2AL   tnx QSO
GB19SA   1828.1   21 Jun 22:40   OK1UU   TNX
GB19SA   1828.0   21 Jun 22:27   G3WPH  
EG3PTA   1840.0   21 Jun 22:26   EA3DUR   ft8 patum
GB19IND   1822.0   21 Jun 22:19   G3KHZ  
GB19CGM   1831.0   21 Jun 22:19   DL3FF   cq
Z310WCA   1840.0   21 Jun 22:18   Z37CEF   FT8 Z3-043 The house of army
GB19IND   1820.0   21 Jun 22:18   OK1UU   TNX
5P19CWC   1820.0   21 Jun 22:12   DL4YR   tks QSO
GB19CGM   1831.0   21 Jun 22:11   OE8TTR   CQing
5P19CWC   1820.0   21 Jun 22:09   UA3GT   tnx QSO
5P19CWC   1820.0   21 Jun 22:07   DL3FF  
YL2GB   1847.0   21 Jun 22:07   LU2DVI/H   Tnx other day 73
LU2DVI   1847.0   21 Jun 22:06   YL2GB   5/5 73!
YL2GB   1847.0   21 Jun 22:03   LU2DVI/H   No Conds.
5P19CWC   1820.0   21 Jun 22:02   OK1UU   CQ CW
EG3PTA   1840.0   21 Jun 21:57   EA3RCI   indicativo correcto
GB19ENG   1840.0   21 Jun 21:53   G0GDA   FT8 CWC
EA3PTA   1840.0   21 Jun 21:53   EA3RCI   ft8 fiestas patum de berga
GB19CGM   1837.0   21 Jun 21:50   M0HYE   TU 4 RTTY 73 ..CWC
GB19CGM   1837.0   21 Jun 21:43   GM4JYB   RTTY
GB19CGM   1846.0   21 Jun 21:41   M0HYE   TU GL 73 .CWC
GB109CGM   1846.0   21 Jun 21:40   M0HYE   TU GL 73 .CWC
GB19CGM   1846.0   21 Jun 21:36   GM4JYB   ssb cricket
LU3ECZ   1870.0   21 Jun 21:30   LU2DVI/H   Cq Cq AM MODO
GB19CMG   1846.0   21 Jun 21:29   GM4JYB   ssb
5P19CWC   1852.5   21 Jun 21:19   MI0SAI   CWC cq
GB19CGM   1832.0   21 Jun 21:18   DL4YR  
GB19KO   1848.5   21 Jun 21:16   M0HYE   TU GL 73.CWC
GB19KO   1848.5   21 Jun 21:10   G4AQG   Cricket World Cup SES
GB19CGM   1832.0   21 Jun 21:08   F8DGF   DGF
VK19AUS   1860.0   21 Jun 21:05   VK5JN   Cricket World Cup
GB19CGM   1832.0   21 Jun 21:04   GM4JYB   cw
GB19TG   1819.0   21 Jun 21:02   MI0SAI   Tnx cq cq
GB19ENG   1885.0   21 Jun 21:00   G0GDA   CQ CWC
GB19IND   1822.0   21 Jun 20:40   G3KHZ  
GB19TG   1819.0   21 Jun 20:30   G3PLE   trying top band cw
GB19RG   1840.0   21 Jun 20:25   G0VLF   CWC FT8
GB19ENG   1920.0   21 Jun 20:18   G0GDA   CQWC
GB19CGM   1840.0   21 Jun 20:17   GM4JYB   ft8
GB19CGM   1837.0   21 Jun 20:07   SP2EWQ   RTTY, tks.. Building...
GB19CGM   1837.0   21 Jun 20:01   GM4JYB   trying RTTY
GB19CGM   1847.0   21 Jun 19:59   SP2EWQ   Still here...
GB19CGM   1847.0   21 Jun 19:54   SP2EWQ  
GB19CGM   1847.0   21 Jun 19:52   GM4JYB   ssb
GB19CGM   1831.0   21 Jun 19:50   DL5KVV  
GB19CGM   1831.0   21 Jun 19:46   SP2EWQ   TKS. SSB, please...
GB19CGM   1831.0   21 Jun 19:42   GM4JYB   cricket
FT8/SS0B   1840.0   21 Jun 16:33   NI0L   no more ssb
T88PB   1811.0   21 Jun 12:18   JN7FAH   CQ NA
ZL2OK   1840.0   21 Jun 08:48   NR1DX  
W1AW   1802.5   21 Jun 03:19   G4UFK   589
PP5CFS   1840.0   21 Jun 02:55   PT9ZE